EW9154 Weather Reports


time (UTC)temp
F
wind
direction
speed
knots
gust
knots
rain 1hr
in
rain 24hr
in
rain mn
in
humidity
%
barometer
mb
20260504232933 55 271 0.0 11.3 0.00 0.00 0.00 38 1017.0
20260504232430 55 258 0.0 10.4 0.00 0.00 0.00 38 1016.8
20260504231904 55 261 0.0 10.4 0.00 0.00 0.00 37 1016.8
20260504231353 56 304 0.0 2.6 0.00 0.00 0.00 38 1016.8
20260504231123 56 263 0.0 7.0 0.00 0.00 0.00 37 1016.8
20260504230347 56 333 0.0 7.0 0.00 0.00 0.00 37 1016.7
20260504225843 56 280 0.0 5.2 0.00 0.00 0.00 37 1016.6
20260504225340 57 284 0.0 2.6 0.00 0.00 0.00 36 1016.5
20260504224814 57 283 0.0 2.6 0.00 0.00 0.00 37 1016.4
20260504224300 58 302 0.0 2.6 0.00 0.00 0.00 36 1016.3
20260504224236 58 277 0.0 11.3 0.00 0.00 0.00 37 1016.3
20260504223437 58 249 0.9 11.3 0.00 0.00 0.00 35 1016.1
20260504222637 58 252 0.9 10.4 0.00 0.00 0.00 36 1016.0
20260504222134 59 268 0.9 10.4 0.00 0.00 0.00 36 1015.8
20260504222109 59 257 0.9 10.4 0.00 0.00 0.00 36 1015.8
20260504221038 60 296 0.9 10.4 0.00 0.00 0.00 34 1015.8
20260504220735 61 252 0.0 6.1 0.00 0.00 0.00 34 1015.7
20260504215955 61 319 0.0 7.8 0.00 0.00 0.00 35 1015.5
20260504215451 62 192 0.0 7.8 0.00 0.00 0.00 34 1015.5
20260504214950 61 252 0.0 6.1 0.00 0.00 0.00 36 1015.4
20260504214435 60 289 0.0 7.0 0.00 0.00 0.00 36 1015.3
20260504213938 60 288 0.0 7.0 0.00 0.00 0.00 35 1015.2
20260504213409 61 254 0.0 13.0 0.00 0.00 0.00 35 1015.0
20260504212906 61 303 0.0 13.0 0.00 0.00 0.00 35 1014.9
20260504212406 60 213 0.9 13.9 0.00 0.00 0.00 35 1014.9
20260504211905 61 269 0.9 13.9 0.00 0.00 0.00 34 1014.8
20260504211337 62 275 0.9 12.2 0.00 0.00 0.00 34 1014.9
20260504210830 62 284 0.0 12.2 0.00 0.00 0.00 33 1014.7
20260504210304 62 182 0.9 4.3 0.00 0.00 0.00 34 1014.8
20260504205757 62 292 0.9 9.6 0.00 0.00 0.00 33 1014.7
20260504205257 63 271 0.9 13.0 0.00 0.00 0.00 33 1014.7
20260504204754 64 254 0.9 13.0 0.00 0.00 0.00 32 1014.7
20260504204525 64 309 0.9 12.2 0.00 0.00 0.00 32 1014.7
20260504203752 64 225 0.9 11.3 0.00 0.00 0.00 33 1014.6
20260504203257 64 279 1.7 11.3 0.00 0.00 0.00 33 1014.5
20260504203001 63 256 1.7 12.2 0.00 0.00 0.00 34 1014.5
20260504202217 64 279 1.7 12.2 0.00 0.00 0.00 32 1014.4
20260504201918 65 244 0.9 11.3 0.00 0.00 0.00 33 1014.5
20260504201149 64 279 0.9 9.6 0.00 0.00 0.00 34 1014.4
20260504200638 64 287 0.9 10.4 0.00 0.00 0.00 33 1014.3
20260504200141 63 252 0.9 11.3 0.00 0.00 0.00 33 1014.3
20260504195627 63 250 0.9 11.3 0.00 0.00 0.00 32 1014.3
20260504195100 63 261 0.9 11.3 0.00 0.00 0.00 34 1014.3
20260504194604 63 234 1.7 11.3 0.00 0.00 0.00 35 1014.3
20260504194048 64 271 0.9 9.6 0.00 0.00 0.00 35 1014.3
20260504193545 63 259 0.9 12.2 0.00 0.00 0.00 34 1014.2
20260504193046 64 255 0.9 12.2 0.00 0.00 0.00 34 1014.0
20260504192759 64 309 0.9 5.2 0.00 0.00 0.00 35 1014.0
20260504192300 63 279 2.6 14.8 0.00 0.00 0.00 35 1013.9
20260504191530 63 242 2.6 14.8 0.00 0.00 0.00 33 1013.8
20260504191012 64 259 0.9 7.8 0.00 0.00 0.00 33 1013.8
20260504190743 64 107 0.9 10.4 0.00 0.00 0.00 34 1013.8
20260504190011 64 261 0.9 10.4 0.00 0.00 0.00 33 1013.8
20260504185511 65 288 0.0 6.1 0.00 0.00 0.00 33 1013.6
20260504185011 64 201 0.9 7.0 0.00 0.00 0.00 35 1013.6
20260504184515 63 218 1.7 8.7 0.00 0.00 0.00 35 1013.6
20260504183953 62 232 1.7 11.3 0.00 0.00 0.00 35 1013.6
20260504183444 62 262 0.9 11.3 0.00 0.00 0.00 33 1013.6
20260504183213 62 269 0.9 7.8 0.00 0.00 0.00 32 1013.5
20260504182440 64 257 0.9 8.7 0.00 0.00 0.00 32 1013.4
20260504181941 64 288 0.9 8.7 0.00 0.00 0.00 31 1013.4
20260504181438 65 263 0.9 6.1 0.00 0.00 0.00 30 1013.2
20260504180918 65 257 0.9 6.1 0.00 0.00 0.00 33 1013.1
20260504180419 65 257 0.9 7.0 0.00 0.00 0.00 32 1013.1
20260504175848 65 288 1.7 9.6 0.00 0.00 0.00 31 1013.0
20260504175348 65 240 0.9 9.6 0.00 0.00 0.00 32 1012.6
20260504174848 65 236 0.0 7.8 0.00 0.00 0.00 32 1012.8
20260504174348 66 327 0.9 7.0 0.00 0.00 0.00 32 1012.6
20260504173848 66 256 1.7 15.6 0.00 0.00 0.00 33 1012.6
20260504173320 66 232 0.9 15.6 0.00 0.00 0.00 33 1012.6
20260504172759 66 238 0.9 8.7 0.00 0.00 0.00 35 1012.5
20260504172235 66 300 0.0 8.7 0.00 0.00 0.00 36 1012.5
20260504171730 66 277 0.0 6.1 0.00 0.00 0.00 37 1012.5
20260504171230 66 284 0.0 6.1 0.00 0.00 0.00 37 1012.3
20260504170701 65 241 0.9 11.3 0.00 0.00 0.00 36 1012.4
20260504170137 65 16 0.9 11.3 0.00 0.00 0.00 35 1012.5
20260504160404 64 244 0.9 10.4 0.00 0.00 0.00 38 1012.3
20260504150617 62 221 0.0 7.0 0.00 0.00 0.00 41 1012.1
20260504150114 61 209 0.0 7.0 0.00 0.00 0.00 42 1012.0
20260504140921 60 284 0.9 8.7 0.00 0.00 0.00 41 1011.7
20260504140414 61 261 0.0 8.7 0.00 0.00 0.00 46 1011.6
20260504130749 59 263 0.9 7.8 0.00 0.00 0.00 50 1010.8
20260504130220 59 278 0.9 9.6 0.00 0.00 0.00 50 1010.8
20260504100518 57 227 2.6 13.0 0.00 0.00 0.00 45 1010.0
20260504081612 56 205 1.7 9.6 0.00 0.00 0.00 46 1011.7
20260504081113 56 201 0.9 9.6 0.00 0.00 0.00 46 1011.9
20260504080816 56 202 1.7 11.3 0.00 0.00 0.00 46 1012.1
20260504070339 56 202 1.7 9.6 0.00 0.00 0.00 45 1013.0
20260504050527 58 226 0.9 7.0 0.00 0.00 0.00 41 1015.4
20260504045757 58 200 0.9 6.1 0.00 0.00 0.00 41 1015.4
20260504045241 58 200 0.0 6.1 0.00 0.00 0.00 42 1015.5
20260504044738 58 200 0.0 3.5 0.00 0.00 0.00 42 1015.6
20260504044238 58 205 0.0 5.2 0.00 0.00 0.00 40 1015.7
20260504043718 58 204 0.0 5.2 0.00 0.00 0.00 39 1015.8
20260504043217 58 215 0.0 0.0 0.00 0.00 0.00 39 1015.9
20260504042712 59 211 0.0 0.0 0.00 0.00 0.00 39 1016.0
20260504042424 59 211 0.0 0.0 0.00 0.00 0.00 39 1016.1
20260504041632 59 202 0.0 0.0 0.00 0.00 0.00 39 1016.1
20260504041136 59 202 0.0 0.0 0.00 0.00 0.00 39 1016.3
20260504040614 59 202 0.0 0.0 0.00 0.00 0.00 39 1016.3
20260504040114 59 202 0.0 0.0 0.00 0.00 0.00 39 1016.4
20260504035618 59 201 0.0 0.0 0.00 0.00 0.00 38 1016.6
20260504035055 59 209 0.0 0.0 0.00 0.00 0.00 38 1016.6
20260504034825 60 209 0.0 0.0 0.00 0.00 0.00 38 1016.8
20260504034034 60 209 0.0 0.0 0.00 0.00 0.00 37 1016.8
20260504033511 60 212 0.0 0.0 0.00 0.00 0.00 36 1016.9
20260504033010 60 251 0.0 0.0 0.00 0.00 0.00 36 1017.0
20260504032514 60 252 0.0 0.0 0.00 0.00 0.00 36 1017.1
20260504031948 61 252 0.0 0.0 0.00 0.00 0.00 36 1017.1
20260504031421 61 252 0.0 0.0 0.00 0.00 0.00 35 1017.1
20260504030911 61 252 0.0 0.0 0.00 0.00 0.00 36 1017.2
20260504030408 61 252 0.0 0.0 0.00 0.00 0.00 36 1017.2
20260504025907 61 252 0.0 0.0 0.00 0.00 0.00 36 1017.3
20260504025405 61 252 0.0 0.0 0.00 0.00 0.00 36 1017.3
20260504024902 61 252 0.0 0.0 0.00 0.00 0.00 36 1017.3
20260504024400 61 252 0.0 0.0 0.00 0.00 0.00 36 1017.4
20260504023855 61 252 0.0 0.0 0.00 0.00 0.00 35 1017.4
20260504023356 62 252 0.0 0.0 0.00 0.00 0.00 36 1017.4
20260504022827 62 252 0.0 0.0 0.00 0.00 0.00 35 1017.4
20260504022317 62 252 0.0 0.0 0.00 0.00 0.00 35 1017.6
20260504021816 62 252 0.0 0.0 0.00 0.00 0.00 35 1017.4
20260504021532 63 252 0.0 0.0 0.00 0.00 0.00 34 1017.4
20260504020758 63 252 0.0 0.0 0.00 0.00 0.00 33 1017.4
20260504020255 64 252 0.0 0.0 0.00 0.00 0.00 33 1017.6
20260504020029 64 252 0.0 0.0 0.00 0.00 0.00 32 1017.4
20260504015246 65 252 0.0 0.0 0.00 0.00 0.00 31 1017.6
20260504014744 65 252 0.0 0.0 0.00 0.00 0.00 31 1017.6
20260504014222 65 252 0.0 0.0 0.00 0.00 0.00 31 1017.6
20260504013723 65 252 0.0 0.0 0.00 0.00 0.00 30 1017.7
20260504013454 66 252 0.0 0.0 0.00 0.00 0.00 30 1017.7
20260504012726 66 252 0.0 0.0 0.00 0.00 0.00 30 1017.8
20260504012206 66 252 0.0 0.0 0.00 0.00 0.00 30 1017.8
20260504011701 66 252 0.0 0.0 0.00 0.00 0.00 28 1017.8
20260504011135 67 252 0.0 0.0 0.00 0.00 0.00 28 1017.9
20260504010608 67 252 0.0 0.0 0.00 0.00 0.00 28 1017.8
20260504010039 67 252 0.0 0.0 0.00 0.00 0.00 27 1017.8
20260504005517 67 252 0.0 0.0 0.00 0.00 0.00 27 1017.9
20260504005004 67 252 0.0 0.0 0.00 0.00 0.00 26 1017.9
20260504004730 68 252 0.0 0.0 0.00 0.00 0.00 26 1018.0
20260504003936 68 252 0.0 0.0 0.00 0.00 0.00 27 1017.9
20260504003411 68 251 0.0 0.0 0.00 0.00 0.00 26 1017.9
20260504003406 68 244 0.0 0.0 0.00 0.00 0.00 26 1018.0
20260504002340 68 244 0.0 2.6 0.00 0.00 0.00 26 1018.0
20260504001820 69 257 0.0 2.6 0.00 0.00 0.00 26 1018.0
20260504001318 69 251 0.0 2.6 0.00 0.00 0.00 27 1018.1
20260504000750 69 245 0.0 7.0 0.00 0.00 0.00 26 1018.1
20260504000246 69 256 0.0 7.0 0.00 0.00 0.00 25 1018.1
20260503235722 70 261 0.0 5.2 0.00 0.00 0.00 25 1018.0
20260503235204 70 261 0.0 5.2 0.00 0.00 0.00 24 1018.0
20260503234939 70 282 0.0 4.3 0.00 0.00 0.00 24 1018.0
20260503234139 71 236 0.0 0.9 0.00 0.00 0.00 25 1018.1
20260503233638 71 236 0.0 4.3 0.00 0.00 0.00 25 1018.0
20260503233614 71 229 0.0 4.3 0.00 0.00 0.00 25 1018.1